This demonstration page uses our WeatherBlox Daily Observations layout. Learn more.

Left ArrowRight Arrow

38.89511, -77.03637

Hourly Observations for March 5, 2021

Temp ( °F °C ) Dew Point ( °F °C ) Humidity (%) Winds ( mph kmh ) Pressure ( in mb ) Visibility ( mi km ) Precip ( " mm )
12:52 am 00:52 Clear 33 0.6 15 -9.4 47 47 NW 13 20 30.06 1018 10 16.0934 0 0
1:52 am 01:52 Clear 32 0 12 -11.1 43 43 NW 16 26 30.07 1018 10 16.0934 0 0
2:52 am 02:52 Clear 31 -0.6 11 -11.7 43 43 NNW 17 28 30.06 1018 10 16.0934 0 0
3:52 am 03:52 Clear 30 -1.1 10 -12.2 43 43 NW 15 24 30.07 1018 10 16.0934 0 0
4:52 am 04:52 Clear 29 -1.7 10 -12.2 45 45 NNW 10 17 30.09 1019 10 16.0934 0 0
5:52 am 05:52 Clear 28 -2.2 9 -12.8 44 44 NW 10 17 30.1 1019 10 16.0934 0 0
6:52 am 06:52 Sunny 28 -2.2 10 -12.2 47 47 NW 14 22 30.12 1020 10 16.0934 0 0
7:52 am 07:52 Sunny 30 -1.1 9 -12.8 41 41 NW 12 19 30.14 1021 10 16.0934 0 0
8:52 am 08:52 Sunny 32 0 8 -13.3 36 36 NNW 15 24 30.14 1021 10 16.0934 0 0
9:52 am 09:52 Sunny 34 1.1 7 -13.9 32 32 WNW 18 30 30.13 1020 10 16.0934 0 0
10:52 am 10:52 Sunny 36 2.2 6 -14.4 28 28 WNW 14 22 30.13 1020 10 16.0934 0 0
11:52 am 11:52 Sunny 37 2.8 8 -13.3 30 30 WNW 16 26 30.11 1020 10 16.0934 0 0
12:52 pm 12:52 Sunny 40 4.4 9 -12.8 28 28 NW 16 26 30.08 1019 10 16.0934 0 0
1:52 pm 13:52 Mostly Sunny 42 5.6 11 -11.7 28 28 WNW 21 33 30.05 1018 10 16.0934 0 0
2:52 pm 14:52 Mostly Sunny 43 6.1 12 -11.1 28 28 WNW 20 31 30.04 1017 10 16.0934 0 0
3:52 pm 15:52 Mostly Sunny 43 6.1 13 -10.6 29 29 NW 20 31 30.04 1017 10 16.0934 0 0
4:52 pm 16:52 Mostly Sunny 42 5.6 14 -10 32 32 NW 20 31 30.04 1017 10 16.0934 0 0
5:52 pm 17:52 Sunny 40 4.4 14 -10 35 35 NW 15 24 30.05 1018 10 16.0934 0 0
6:52 pm 18:52 Clear 39 3.9 14 -10 36 36 NW 9 15 30.05 1018 10 16.0934 0 0
7:52 pm 19:52 Clear 38 3.3 14 -10 37 37 WNW 8 13 30.06 1018 10 16.0934 0 0
8:52 pm 20:52 Clear 38 3.3 13 -10.6 36 36 W 6 9 30.07 1018 10 16.0934 0 0
9:52 pm 21:52 Clear 37 2.8 13 -10.6 37 37 W 5 7 30.09 1019 10 16.0934 0 0
10:52 pm 22:52 Clear 38 3.3 13 -10.6 36 36 NW 8 13 30.1 1019 10 16.0934 0 0
11:52 pm 23:52 Clear 37 2.8 13 -10.6 37 37 NW 15 24 30.13 1020 10 16.0934 0 0

Powered by AerisWeather